Terug naar catalogus

GEESAT 6-08

ActiefCommunicatieLEO
NORAD 65720·PAYLOAD·🇨🇳 China

Gelanceerd Sep 24, 2025 vanaf Yellow Sea Launch Area

Loading…

Volgende Passages (komende 24 uur)

TLE

VersSource: Space-Track

Epoch: Sep 14, 2026, 10:04 UTC

1 65720U 25214J   26257.41993538  .00001060  00000-0  15442-3 0  9994
2 65720  49.9902 254.9501 0009518 200.0316 160.0250 14.83592165 52753

Volg GEESAT 6-08 in realtime met AllMySat

Download on the App Store